Flag for Canada Weather past 2 weeks in Ottawa, Ontario, Canada

57 °F

Broken clouds.

Feels Like: 56 °F
Forecast: 42 / 58 °F
Wind: 6 mph from East

Location: Ottawa Int'L. Ont.

Current Time: Oct 4, 2015 at 2:11:23 PM

Latest Report: Oct 4, 2015 at 1:00 PM

Visibility: 15 mi

Pressure: 30.42 "Hg

Humidity: 48%

Dew point: 37 °F

Location of OttawaLocation

Historic Weather in Ottawa — Graph


Ottawa temperature yesterday

Maximum temperature yesterday: 55 °F (at 2:00 PM)
Minimum temperature yesterday: 39 °F (at 2:00 AM)
Average temperature yesterday: 46 °F

Past Weeks' High & Low Weather Summary

High75 °F (Sep 19, 1:00 PM)100% (Sep 21, 6:00 AM)30.61 "Hg (Sep 21, 6:00 AM)
Low37 °F (Sep 27, 6:00 AM)35% (Oct 2, 2:00 PM)29.62 "Hg (Sep 19, 6:00 PM)
Average56 °F70%30.28 "Hg
* Reported Sep 19 1:00 PM — Oct 4 1:00 PM, Ottawa, Weather by CustomWeather, © 2015

Note: Actual official high and low records may vary slightly from our data, if they occured in-between our weather recording intervals... More about our weather records


Ottawa weather history for previous 24 hours

Time TempWeatherWind HumidityBarometerVisibility
1:00 PM
Sun, Oct 4
57 °FBroken clouds.6 mph48%30.42 "Hg15 mi
12:00 PM54 °FBroken clouds.8 mph58%30.45 "Hg15 mi
11:00 AM50 °FPartly sunny.9 mph62%30.46 "Hg15 mi
10:00 AM46 °FPartly sunny.12 mph66%30.48 "Hg15 mi
9:00 AM43 °FPartly sunny.12 mph76%30.48 "Hg15 mi
8:00 AM41 °FPassing clouds.12 mph76%30.48 "Hg15 mi
7:00 AM41 °FPartly cloudy.9 mph76%30.47 "Hg15 mi
6:00 AM41 °FPassing clouds.15 mph76%30.47 "Hg15 mi
5:00 AM41 °FPassing clouds.14 mph76%30.47 "Hg15 mi
4:00 AM43 °FPassing clouds.14 mph76%30.48 "Hg15 mi
3:00 AM43 °FPartly cloudy.13 mph76%30.48 "Hg15 mi
2:00 AM43 °FPassing clouds.13 mph76%30.50 "Hg15 mi
1:00 AM43 °FPartly cloudy.13 mph76%30.51 "Hg15 mi
12:00 AM43 °FPartly cloudy.10 mph76%30.52 "Hg15 mi
11:00 PM
Sat, Oct 3
45 °FPassing clouds.13 mph66%30.53 "Hg15 mi
10:00 PM46 °FPassing clouds.10 mph62%30.53 "Hg15 mi
9:00 PM46 °FPassing clouds.12 mph62%30.53 "Hg15 mi
8:00 PM48 °FPassing clouds.13 mph54%30.53 "Hg15 mi
7:00 PM48 °FPartly sunny.12 mph58%30.53 "Hg15 mi
6:00 PM50 °FBroken clouds.15 mph54%30.54 "Hg15 mi
5:00 PM52 °FBroken clouds.21 mph47%30.52 "Hg15 mi
4:00 PM54 °FBroken clouds.22 mph47%30.53 "Hg15 mi
3:00 PM52 °FScattered clouds.18 mph47%30.54 "Hg15 mi
2:00 PM55 °FScattered clouds.16 mph47%30.55 "Hg15 mi
Weather by CustomWeather, © 2015

See weather overviewHow to use our weather pages